• In Hungary
  • List of Countries
  • For 7 days
  • Water Temperature
  • Satellite Maps
  • Weather Map
  • News
  • Weather Widgets
  • user-avatar
    Login

    Hourly Weather Gluszyno

    Today, 16 July, Monday

    Time Temperature Precipitation Wind Pressure Humidity
    00:00 +16°C° 0 mm 2 mps 754 mmHg 92%
    01:00 +16°C° 0 mm 2 mps 754 mmHg 92%
    02:00 +16°C° 0 mm 2 mps 754 mmHg 92%
    03:00 +16°C° 0 mm 2 mps 754 mmHg 92%
    04:00 +16°C° 0 mm 2 mps 754 mmHg 92%
    05:00 +18°C° 0 mm 2 mps 754 mmHg 85%
    06:00 +19°C° 0 mm 2 mps 754 mmHg 78%
    07:00 +21°C° 0 mm 3 mps 754 mmHg 69%
    08:00 +24°C° 0 mm 3 mps 753 mmHg 63%
    09:00 +25°C° 0 mm 3 mps 753 mmHg 58%
    10:00 +27°C° 0 mm 4 mps 753 mmHg 52%
    11:00 +27°C° 0 mm 4 mps 753 mmHg 52%
    12:00 +28°C° 0 mm 4 mps 753 mmHg 51%
    13:00 +28°C° 0 mm 4 mps 753 mmHg 51%
    14:00 +27°C° 0.3 mm 4 mps 753 mmHg 56%
    15:00 +26°C° 0.3 mm 4 mps 752 mmHg 62%
    16:00 +25°C° 0.3 mm 4 mps 752 mmHg 67%
    17:00 +23°C° 0.2 mm 4 mps 752 mmHg 74%
    18:00 +21°C° 0.2 mm 3 mps 752 mmHg 81%
    19:00 +20°C° 0.2 mm 3 mps 752 mmHg 88%
    20:00 +19°C° 0.2 mm 3 mps 752 mmHg 89%
    21:00 +19°C° 0.2 mm 3 mps 752 mmHg 91%
    22:00 +18°C° 0.2 mm 3 mps 752 mmHg 92%
    23:00 +18°C° 0.2 mm 3 mps 751 mmHg 93%

    Tomorrow, 17 July, Tuesday

    Time Temperature Precipitation Wind Pressure Humidity
    00:00 +18°C° 0.2 mm 3 mps 751 mmHg 94%
    01:00 +18°C° 0.2 mm 3 mps 751 mmHg 94%
    02:00 +18°C° 0.2 mm 3 mps 751 mmHg 95%
    03:00 +18°C° 0.2 mm 3 mps 751 mmHg 96%
    04:00 +18°C° 0.2 mm 3 mps 750 mmHg 96%
    05:00 +18°C° 0.6 mm 3 mps 750 mmHg 96%
    06:00 +19°C° 0.6 mm 3 mps 750 mmHg 96%
    07:00 +19°C° 0.6 mm 3 mps 750 mmHg 96%
    08:00 +20°C° 0.8 mm 3 mps 750 mmHg 94%
    09:00 +20°C° 0.8 mm 4 mps 750 mmHg 93%
    10:00 +21°C° 0.8 mm 4 mps 750 mmHg 91%
    11:00 +21°C° 0.6 mm 4 mps 750 mmHg 89%
    12:00 +22°C° 0.6 mm 4 mps 750 mmHg 87%
    13:00 +23°C° 0.6 mm 5 mps 749 mmHg 85%
    14:00 +23°C° 0.8 mm 4 mps 749 mmHg 85%
    15:00 +22°C° 0.8 mm 4 mps 749 mmHg 86%
    16:00 +22°C° 0.8 mm 4 mps 749 mmHg 86%
    17:00 +22°C° 0.8 mm 4 mps 749 mmHg 89%
    18:00 +21°C° 0.8 mm 3 mps 749 mmHg 91%
    19:00 +20°C° 0.8 mm 3 mps 749 mmHg 94%
    20:00 +20°C° 1.1 mm 3 mps 749 mmHg 95%
    21:00 +20°C° 1.1 mm 3 mps 749 mmHg 96%
    22:00 +19°C° 1.1 mm 3 mps 749 mmHg 97%
    23:00 +19°C° 1.4 mm 2 mps 749 mmHg 97%

    Day after tomorrow, 18 July, Wednesday

    Time Temperature Precipitation Wind Pressure Humidity
    00:00 +19°C° 1.4 mm 2 mps 748 mmHg 97%
    01:00 +19°C° 1.4 mm 2 mps 748 mmHg 97%
    02:00 +19°C° 0.9 mm 2 mps 748 mmHg 98%
    03:00 +19°C° 0.9 mm 2 mps 748 mmHg 98%
    04:00 +19°C° 0.9 mm 2 mps 748 mmHg 98%
    05:00 +20°C° 0.9 mm 2 mps 748 mmHg 97%
    06:00 +21°C° 0.9 mm 2 mps 748 mmHg 95%
    07:00 +21°C° 0.9 mm 3 mps 749 mmHg 94%
    08:00 +22°C° 1 mm 3 mps 749 mmHg 90%
    09:00 +24°C° 1 mm 2 mps 749 mmHg 86%
    10:00 +26°C° 1 mm 2 mps 749 mmHg 82%
    11:00 +26°C° 1 mm 3 mps 749 mmHg 82%
    12:00 +26°C° 1 mm 3 mps 749 mmHg 81%
    13:00 +26°C° 1 mm 4 mps 750 mmHg 81%
    14:00 +25°C° 0.6 mm 4 mps 750 mmHg 83%
    15:00 +25°C° 0.6 mm 4 mps 750 mmHg 86%
    16:00 +23°C° 0.6 mm 4 mps 750 mmHg 88%
    17:00 +22°C° 0.2 mm 4 mps 750 mmHg 90%
    18:00 +21°C° 0.2 mm 4 mps 750 mmHg 92%
    19:00 +20°C° 0.2 mm 4 mps 750 mmHg 94%
    20:00 +20°C° 0.2 mm 4 mps 751 mmHg 95%
    21:00 +20°C° 0.2 mm 4 mps 751 mmHg 96%
    22:00 +20°C° 0.2 mm 4 mps 751 mmHg 96%
    23:00 +20°C° 0.1 mm 4 mps 751 mmHg 97%

    19 July, Thursday

    Time Temperature Precipitation Wind Pressure Humidity
    00:00 +20°C° 0.1 mm 4 mps 751 mmHg 97%
    01:00 +19°C° 0.1 mm 4 mps 751 mmHg 97%
    02:00 +19°C° 0.1 mm 4 mps 751 mmHg 97%
    03:00 +19°C° 0.1 mm 4 mps 751 mmHg 97%
    04:00 +19°C° 0.1 mm 4 mps 751 mmHg 97%
    05:00 +20°C° 0.1 mm 4 mps 751 mmHg 95%
    06:00 +20°C° 0.1 mm 4 mps 751 mmHg 93%
    07:00 +21°C° 0.1 mm 4 mps 751 mmHg 92%
    08:00 +21°C° 0.3 mm 4 mps 751 mmHg 88%
    09:00 +22°C° 0.3 mm 4 mps 751 mmHg 85%
    10:00 +23°C° 0.3 mm 4 mps 751 mmHg 82%
    11:00 +23°C° 0.4 mm 4 mps 751 mmHg 80%
    12:00 +25°C° 0.4 mm 4 mps 752 mmHg 77%
    13:00 +25°C° 0.4 mm 5 mps 752 mmHg 75%
    14:00 +25°C° 0.2 mm 5 mps 752 mmHg 76%
    15:00 +23°C° 0.2 mm 5 mps 752 mmHg 78%
    16:00 +22°C° 0.2 mm 4 mps 752 mmHg 80%
    17:00 +22°C° 0 mm 4 mps 752 mmHg 83%
    18:00 +21°C° 0 mm 4 mps 752 mmHg 86%
    19:00 +20°C° 0 mm 4 mps 752 mmHg 89%
    20:00 +20°C° 0 mm 3 mps 752 mmHg 91%
    21:00 +19°C° 0 mm 3 mps 752 mmHg 94%
    22:00 +18°C° 0 mm 3 mps 752 mmHg 97%
    23:00 +18°C° 0 mm 3 mps 752 mmHg 97%

    20 July, Friday

    Time Temperature Precipitation Wind Pressure Humidity
    00:00 +18°C° 0 mm 3 mps 752 mmHg 97%
    01:00 +18°C° 0 mm 3 mps 752 mmHg 97%
    02:00 +18°C° 0 mm 3 mps 752 mmHg 96%
    03:00 +18°C° 0 mm 3 mps 752 mmHg 95%
    04:00 +18°C° 0 mm 3 mps 752 mmHg 94%
    05:00 +19°C° 0 mm 3 mps 752 mmHg 90%
    06:00 +20°C° 0 mm 3 mps 752 mmHg 86%
    07:00 +21°C° 0 mm 4 mps 752 mmHg 82%
    08:00 +21°C° 0.1 mm 4 mps 752 mmHg 79%
    09:00 +22°C° 0.1 mm 4 mps 752 mmHg 76%
    10:00 +23°C° 0.1 mm 5 mps 752 mmHg 73%
    11:00 +23°C° 0.1 mm 5 mps 752 mmHg 71%
    12:00 +23°C° 0.1 mm 5 mps 752 mmHg 69%
    13:00 +24°C° 0.1 mm 6 mps 752 mmHg 67%
    14:00 +23°C° 0 mm 6 mps 752 mmHg 65%
    15:00 +23°C° 0 mm 5 mps 752 mmHg 63%
    16:00 +23°C° 0 mm 5 mps 752 mmHg 62%
    17:00 +21°C° 0 mm 5 mps 751 mmHg 65%
    18:00 +20°C° 0 mm 4 mps 751 mmHg 69%
    19:00 +19°C° 0 mm 4 mps 751 mmHg 73%
    20:00 +18°C° 0 mm 4 mps 751 mmHg 77%
    21:00 +17°C° 0 mm 4 mps 751 mmHg 82%
    22:00 +14°C° 0 mm 4 mps 751 mmHg 87%
    23:00 +14°C° 0 mm 4 mps 751 mmHg 88%

    21 July, Saturday

    Time Temperature Precipitation Wind Pressure Humidity
    00:00 +14°C° 0 mm 4 mps 751 mmHg 89%
    01:00 +13°C° 0 mm 4 mps 751 mmHg 90%
    02:00 +13°C° 0 mm 4 mps 751 mmHg 92%
    03:00 +13°C° 0 mm 4 mps 751 mmHg 93%
    04:00 +13°C° 0 mm 4 mps 751 mmHg 94%
    05:00 +15°C° 0 mm 4 mps 751 mmHg 87%
    06:00 +17°C° 0 mm 4 mps 751 mmHg 81%
    07:00 +19°C° 0 mm 5 mps 751 mmHg 74%
    08:00 +20°C° 0 mm 5 mps 751 mmHg 69%
    09:00 +21°C° 0 mm 5 mps 751 mmHg 63%
    10:00 +22°C° 0 mm 5 mps 751 mmHg 58%
    11:00 +23°C° 0 mm 5 mps 751 mmHg 56%
    12:00 +23°C° 0 mm 5 mps 751 mmHg 54%
    13:00 +23°C° 0 mm 5 mps 751 mmHg 52%
    14:00 +23°C° 0 mm 5 mps 751 mmHg 53%
    15:00 +23°C° 0 mm 5 mps 751 mmHg 54%
    16:00 +22°C° 0 mm 4 mps 751 mmHg 55%
    17:00 +21°C° 0 mm 4 mps 751 mmHg 61%
    18:00 +20°C° 0 mm 3 mps 751 mmHg 67%
    19:00 +19°C° 0 mm 3 mps 751 mmHg 73%
    20:00 +18°C° 0 mm 3 mps 751 mmHg 78%
    21:00 +17°C° 0 mm 3 mps 751 mmHg 83%
    22:00 +14°C° 0 mm 3 mps 751 mmHg 88%
    23:00 +14°C° 0 mm 3 mps 751 mmHg 88%
    Show more